EW9034 Weather Reports


time (UTC)temp
C
wind
direction
speed
KPH
gust
KPH
rain 1hr
cm
rain 24hr
cm
rain mn
cm
humidity
%
barometer
mb
20260509031519 16 69 14.5 22.5 0.00 0.00 0.00 35 1007.3
20260509030019 17 63 14.5 20.9 0.00 0.00 0.00 34 1007.2
20260509024518 17 56 17.7 32.2 0.00 0.00 0.00 33 1006.9
20260509023018 18 66 19.3 27.4 0.00 0.00 0.00 31 1006.7
20260509021517 18 48 19.3 30.6 0.00 0.00 0.00 30 1006.5
20260509020017 19 57 20.9 35.4 0.00 0.00 0.00 29 1006.3
20260509014515 20 24 16.1 35.4 0.00 0.00 0.00 26 1005.9
20260509013019 20 360 24.1 33.8 0.00 0.00 0.00 24 1005.8
20260509011515 20 5 14.5 25.7 0.00 0.00 0.00 25 1005.7
20260509010019 21 360 20.9 32.2 0.00 0.00 0.00 25 1005.6
20260509004513 21 15 25.7 40.2 0.00 0.00 0.00 23 1005.5
20260509003020 21 345 27.4 40.2 0.00 0.00 0.00 22 1005.4
20260509001513 23 350 32.2 48.3 0.00 0.00 0.00 20 1005.3
20260509000012 23 360 25.7 43.5 0.00 0.00 0.00 21 1005.2
20260508234511 24 355 25.7 40.2 0.00 0.00 0.00 19 1005.0
20260508233011 23 355 27.4 38.6 0.00 0.00 0.00 18 1004.7
20260508231510 23 322 29.0 40.2 0.00 0.00 0.00 20 1004.9
20260508230010 24 344 24.1 40.2 0.00 0.00 0.00 18 1004.9
20260508224516 25 327 24.1 45.1 0.00 0.00 0.00 19 1004.7
20260508223022 23 325 25.7 46.7 0.00 0.00 0.00 21 1004.9
20260508221507 24 342 29.0 43.5 0.00 0.00 0.00 21 1004.8
20260508220006 24 350 24.1 41.8 0.00 0.00 0.00 23 1004.8
20260508214504 24 343 17.7 43.5 0.00 0.00 0.00 24 1004.9
20260508213003 23 321 19.3 38.6 0.00 0.00 0.00 26 1004.9
20260508211503 23 294 20.9 32.2 0.00 0.00 0.00 28 1004.8
20260508210002 24 291 14.5 33.8 0.00 0.00 0.00 26 1004.9
20260508204602 25 337 20.9 35.4 0.00 0.00 0.00 27 1004.9
20260508203102 24 336 8.0 20.9 0.00 0.00 0.00 26 1004.9
20260508201600 24 304 12.9 24.1 0.00 0.00 0.00 27 1005.0
20260508200056 24 318 11.3 32.2 0.00 0.00 0.00 28 1005.1
20260508194609 23 327 11.3 20.9 0.00 0.00 0.00 27 1005.2
20260508193105 23 338 11.3 20.9 0.00 0.00 0.00 27 1005.4
20260508191549 22 306 11.3 19.3 0.00 0.00 0.00 30 1005.6
20260508190047 22 317 8.0 20.9 0.00 0.00 0.00 32 1005.8
20260508184553 22 302 3.2 17.7 0.00 0.00 0.00 35 1006.0
20260508183041 22 274 6.4 19.3 0.00 0.00 0.00 34 1006.1
20260508181542 22 306 11.3 25.7 0.00 0.00 0.00 36 1006.4
20260508180039 21 272 9.7 24.1 0.00 0.00 0.00 35 1006.5
20260508174534 20 205 8.0 20.9 0.00 0.00 0.00 38 1006.7
20260508173027 20 219 8.0 22.5 0.00 0.00 0.00 40 1007.0
20260508171528 20 243 16.1 22.5 0.00 0.00 0.00 38 1006.9
20260508170021 19 232 14.5 25.7 0.00 0.00 0.00 39 1007.3
20260508164518 18 250 17.7 25.7 0.00 0.00 0.00 40 1007.4
20260508163013 18 243 12.9 25.7 0.00 0.00 0.00 43 1007.7
20260508161509 17 253 14.5 27.4 0.00 0.00 0.00 44 1007.7
20260508160012 17 227 16.1 25.7 0.00 0.00 0.00 44 1007.9
20260508154504 17 217 16.1 24.1 0.00 0.00 0.00 48 1008.1
20260508153058 16 233 12.9 20.9 0.00 0.00 0.00 51 1008.2
20260508151555 15 207 17.7 25.7 0.00 0.00 0.00 53 1008.4
20260508150051 15 245 19.3 29.0 0.00 0.00 0.00 53 1008.4
20260508144548 14 235 17.7 27.4 0.00 0.00 0.00 57 1008.5
20260508143056 13 227 12.9 22.5 0.00 0.00 0.00 61 1008.7
20260508141550 11 220 11.3 16.1 0.00 0.00 0.00 65 1008.9
20260508140036 11 225 8.0 14.5 0.00 0.00 0.00 71 1008.9
20260508134534 10 231 11.3 14.5 0.00 0.00 0.00 74 1009.0
20260508133027 9 231 6.4 11.3 0.00 0.00 0.00 72 1009.0
20260508131522 8 227 9.7 12.9 0.00 0.00 0.00 72 1009.1
20260508130018 7 223 4.8 11.3 0.00 0.00 0.00 74 1009.0
20260508124513 6 222 6.4 11.3 0.00 0.00 0.00 75 1009.1
20260508123012 5 220 6.4 11.3 0.00 0.00 0.00 76 1009.1
20260508121516 5 221 6.4 9.7 0.00 0.00 0.00 78 1009.0
20260508120004 4 221 8.0 12.9 0.00 0.00 0.00 78 1009.1
20260508114502 4 216 9.7 12.9 0.00 0.00 0.00 73 1009.3
20260508113002 4 213 9.7 11.3 0.00 0.00 0.00 73 1009.2
20260508111501 5 215 8.0 11.3 0.00 0.00 0.00 76 1009.2
20260508110104 5 217 9.7 12.9 0.00 0.00 0.00 75 1009.2
20260508110001 5 219 9.7 12.9 0.00 0.00 0.00 75 1009.3
20260508104501 5 222 8.0 12.9 0.00 0.00 0.00 77 1009.4
20260508103119 5 223 8.0 11.3 0.00 0.00 0.00 75 1009.3
20260508101559 5 224 9.7 14.5 0.00 0.00 0.00 78 1009.3
20260508100058 3 226 8.0 12.9 0.00 0.00 0.00 78 1009.3
20260508094609 3 236 6.4 11.3 0.00 0.00 0.00 78 1009.2
20260508093056 3 238 8.0 12.9 0.00 0.00 0.00 76 1009.3
20260508091601 3 234 6.4 9.7 0.00 0.00 0.00 74 1009.2
20260508090054 3 233 6.4 11.3 0.00 0.00 0.00 72 1009.3
20260508084553 4 223 3.2 8.0 0.00 0.00 0.00 69 1009.3
20260508083131 5 223 4.8 11.3 0.00 0.00 0.00 67 1009.3
20260508081555 5 227 9.7 19.3 0.00 0.00 0.00 69 1009.4
20260508080055 5 236 14.5 20.9 0.00 0.00 0.00 68 1009.3
20260508074544 3 339 8.0 9.7 0.00 0.00 0.00 65 1009.2
20260508073041 3 346 1.6 6.4 0.00 0.00 0.00 63 1009.2
20260508071543 3 347 3.2 6.4 0.00 0.00 0.00 62 1009.2
20260508070038 3 351 4.8 8.0 0.00 0.00 0.00 67 1009.2
20260508064548 4 355 3.2 6.4 0.00 0.00 0.00 62 1009.1
20260508063037 4 355 4.8 6.4 0.00 0.00 0.00 62 1009.2
20260508061532 4 355 4.8 8.0 0.00 0.00 0.00 62 1009.3
20260508060026 5 355 3.2 4.8 0.00 0.00 0.00 62 1009.2
20260508054524 5 355 3.2 6.4 0.00 0.00 0.00 62 1009.1
20260508053022 5 355 0.0 3.2 0.00 0.00 0.00 59 1009.0
20260508051521 5 355 3.2 6.4 0.00 0.00 0.00 55 1009.0
20260508050021 6 355 4.8 8.0 0.00 0.00 0.00 58 1008.8
20260508044514 6 355 3.2 6.4 0.00 0.00 0.00 52 1008.8
20260508043010 7 355 6.4 8.0 0.00 0.00 0.00 52 1008.8
20260508041513 8 355 3.2 6.4 0.00 0.00 0.00 50 1008.5
20260508040007 10 355 0.0 3.2 0.00 0.00 0.00 51 1008.4
20260508034509 11 355 0.0 3.2 0.00 0.00 0.00 49 1008.3
20260508033006 11 355 3.2 6.4 0.00 0.00 0.00 48 1008.2